TimeCET,TemperatureF,Dew PointF,Humidity,Sea Level PressureIn,VisibilityMPH,Wind Direction,Wind SpeedMPH,Gust SpeedMPH,PrecipitationIn,Events,Conditions,WindDirDegrees,DateUTC
12:15 AM,37.4,24.8,60,29.74,6.2,North,17.3,31.1,N/A,,Scattered Clouds,350,2012-12-08 23:15:00
12:45 AM,37.4,24.8,60,29.74,6.2,North,17.3,28.8,N/A,,Scattered Clouds,350,2012-12-08 23:45:00
1:15 AM,37.4,24.8,60,29.74,6.2,North,16.1,28.8,N/A,,Scattered Clouds,350,2012-12-09 00:15:00
1:45 AM,35.6,26.6,70,29.74,6.2,North,15.0,29.9,N/A,,Scattered Clouds,350,2012-12-09 00:45:00
2:15 AM,35.6,23.0,60,29.74,6.2,North,16.1,32.2,N/A,,Scattered Clouds,350,2012-12-09 01:15:00
2:45 AM,35.6,21.2,56,29.74,6.2,North,15.0,33.4,N/A,,Scattered Clouds,360,2012-12-09 01:45:00
3:15 AM,35.6,23.0,60,29.74,6.2,North,16.1,28.8,N/A,,Scattered Clouds,350,2012-12-09 02:15:00
3:45 AM,35.6,21.2,56,29.77,-9999.0,North,17.3,29.9,N/A,,Clear,350,2012-12-09 02:45:00
4:15 AM,35.6,21.2,56,29.77,-9999.0,North,18.4,40.3,N/A,,Clear,360,2012-12-09 03:15:00
4:45 AM,35.6,23.0,60,29.80,-9999.0,North,17.3,33.4,N/A,,Clear,360,2012-12-09 03:45:00
5:15 AM,35.6,23.0,60,29.80,-9999.0,North,18.4,32.2,N/A,,Clear,360,2012-12-09 04:15:00
5:45 AM,35.6,21.2,56,29.80,-9999.0,North,17.3,29.9,N/A,,Clear,350,2012-12-09 04:45:00
6:15 AM,37.4,23.0,56,29.83,-9999.0,North,19.6,31.1,N/A,,Clear,350,2012-12-09 05:15:00
6:45 AM,37.4,23.0,56,29.83,-9999.0,North,17.3,-,N/A,,Clear,350,2012-12-09 05:45:00
7:15 AM,37.4,23.0,56,29.83,6.2,North,17.3,31.1,N/A,,Partly Cloudy,350,2012-12-09 06:15:00
7:45 AM,37.4,23.0,56,29.86,6.2,North,17.3,28.8,N/A,,Partly Cloudy,360,2012-12-09 06:45:00
8:15 AM,37.4,23.0,56,29.89,6.2,North,19.6,35.7,N/A,,Partly Cloudy,350,2012-12-09 07:15:00
8:45 AM,39.2,23.0,52,29.92,6.2,North,19.6,32.2,N/A,,Partly Cloudy,350,2012-12-09 07:45:00
9:15 AM,39.2,23.0,52,29.92,6.2,North,23.0,36.8,N/A,,Partly Cloudy,360,2012-12-09 08:15:00
9:45 AM,39.2,23.0,52,29.92,6.2,North,13.8,28.8,N/A,,Partly Cloudy,360,2012-12-09 08:45:00
10:15 AM,41.0,23.0,49,29.95,6.2,North,17.3,28.8,N/A,,Partly Cloudy,350,2012-12-09 09:15:00
10:45 AM,42.8,21.2,42,29.98,6.2,NNW,17.3,-,N/A,,Partly Cloudy,340,2012-12-09 09:45:00
11:15 AM,42.8,19.4,39,29.95,6.2,North,20.7,32.2,N/A,,Partly Cloudy,360,2012-12-09 10:15:00
11:45 AM,44.6,19.4,37,29.92,-9999.0,North,16.1,29.9,N/A,,Clear,360,2012-12-09 10:45:00
12:15 PM,44.6,19.4,37,29.95,6.2,North,16.1,28.8,N/A,,Partly Cloudy,360,2012-12-09 11:15:00
12:45 PM,44.6,19.4,37,29.95,6.2,North,17.3,29.9,N/A,,Partly Cloudy,360,2012-12-09 11:45:00
1:15 PM,46.4,19.4,34,29.95,6.2,NNW,17.3,28.8,N/A,,Partly Cloudy,340,2012-12-09 12:15:00
1:45 PM,46.4,17.6,32,29.95,6.2,North,11.5,-,N/A,,Partly Cloudy,360,2012-12-09 12:45:00
2:15 PM,46.4,17.6,32,29.98,6.2,North,17.3,28.8,N/A,,Partly Cloudy,350,2012-12-09 13:15:00
2:45 PM,46.4,17.6,32,29.98,6.2,North,18.4,29.9,N/A,,Partly Cloudy,350,2012-12-09 13:45:00
3:15 PM,44.6,15.8,31,29.98,6.2,North,18.4,29.9,N/A,,Partly Cloudy,350,2012-12-09 14:15:00
3:45 PM,44.6,15.8,31,29.98,-9999.0,North,15.0,26.5,N/A,,Clear,360,2012-12-09 14:45:00
4:15 PM,44.6,15.8,31,29.98,-9999.0,North,13.8,28.8,N/A,,Clear,350,2012-12-09 15:15:00
4:45 PM,42.8,14.0,31,30.01,6.2,North,10.4,-,N/A,,Partly Cloudy,350,2012-12-09 15:45:00
5:15 PM,41.0,14.0,33,30.01,6.2,NNW,9.2,-,N/A,,Partly Cloudy,330,2012-12-09 16:15:00
5:45 PM,39.2,15.8,39,30.01,-9999.0,NNW,8.1,-,N/A,,Clear,330,2012-12-09 16:45:00
6:15 PM,37.4,15.8,41,30.01,-9999.0,NNW,8.1,-,N/A,,Clear,340,2012-12-09 17:15:00
6:45 PM,39.2,17.6,42,30.01,-9999.0,NNW,11.5,-,N/A,,Clear,340,2012-12-09 17:45:00
7:15 PM,37.4,17.6,45,30.04,-9999.0,NNW,4.6,-,N/A,,Clear,330,2012-12-09 18:15:00
7:45 PM,37.4,19.4,48,30.04,-9999.0,NW,6.9,-,N/A,,Clear,310,2012-12-09 18:45:00
8:15 PM,37.4,19.4,48,30.04,-9999.0,NNW,9.2,-,N/A,,Clear,330,2012-12-09 19:15:00
8:45 PM,35.6,19.4,52,30.04,-9999.0,NNW,6.9,-,N/A,,Clear,330,2012-12-09 19:45:00
9:15 PM,35.6,19.4,52,30.04,-9999.0,ENE,2.3,-,N/A,,Clear,60,2012-12-09 20:15:00
9:45 PM,33.8,19.4,56,30.04,-9999.0,NE,4.6,-,N/A,,Clear,50,2012-12-09 20:45:00
10:15 PM,33.8,19.4,56,30.04,-9999.0,NE,2.3,-,N/A,,Clear,50,2012-12-09 21:15:00
10:45 PM,33.8,21.2,60,30.04,-9999.0,ENE,1.2,-,N/A,,Clear,60,2012-12-09 21:45:00
11:15 PM,32.0,19.4,60,30.04,-9999.0,Calm,Calm,-,N/A,,Clear,0,2012-12-09 22:15:00
11:45 PM,32.0,21.2,64,30.04,-9999.0,NE,2.3,-,N/A,,Clear,40,2012-12-09 22:45:00